�������l�o���
Date,Time,MP-1(��Sv/h),MP-2(��Sv/h),MP-3(��Sv/h),MP-4(��Sv/h),MP-5(��Sv/h),MP-6(��Sv/h),MP-7(��Sv/h),MP-8(��Sv/h),����,����(m/s),���J
2022/08/29,00:00,0.577,0.813,0.515,0.994,0.705,0.333,0.578,0.547,�k�k��,2.2,��
2022/08/29,00:10,0.576,0.812,0.515,0.994,0.707,0.333,0.580,0.546,�k�k��,1.4,��
2022/08/29,00:20,0.578,0.811,0.515,0.992,0.705,0.335,0.580,0.546,�k�k��,2.5,��
2022/08/29,00:30,0.576,0.812,0.515,0.993,0.706,0.334,0.580,0.546,�k��,2.0,��
2022/08/29,00:40,0.576,0.811,0.514,0.992,0.705,0.335,0.579,0.546,�k��,1.7,��
2022/08/29,00:50,0.574,0.811,0.514,0.995,0.707,0.334,0.578,0.545,�k��,1.5,��
2022/08/29,01:00,0.577,0.811,0.516,0.994,0.705,0.334,0.581,0.545,�k��,2.0,��
2022/08/29,01:10,0.576,0.813,0.516,0.995,0.706,0.333,0.580,0.546,�k�k��,1.9,��
2022/08/29,01:20,0.577,0.812,0.515,0.994,0.704,0.332,0.581,0.545,�k��,2.8,��
2022/08/29,01:30,0.576,0.814,0.515,0.993,0.705,0.334,0.580,0.546,�k��,2.5,��
2022/08/29,01:40,0.577,0.811,0.515,0.994,0.704,0.333,0.580,0.545,�k�k��,2.6,��
2022/08/29,01:50,0.575,0.810,0.515,0.993,0.705,0.334,0.581,0.547,�k��,3.8,��
2022/08/29,02:00,0.577,0.813,0.515,0.994,0.705,0.332,0.579,0.545,�k��,4.0,��
2022/08/29,02:10,0.576,0.811,0.516,0.995,0.706,0.333,0.580,0.545,�k��,3.7,��
2022/08/29,02:20,0.574,0.812,0.516,0.995,0.706,0.334,0.580,0.546,�k��,4.0,��
2022/08/29,02:30,0.576,0.811,0.515,0.995,0.704,0.333,0.580,0.546,�k��,4.0,��
2022/08/29,02:40,0.575,0.812,0.515,0.993,0.705,0.334,0.581,0.545,�k��,4.0,��
2022/08/29,02:50,0.575,0.811,0.515,0.994,0.706,0.334,0.579,0.546,�k��,4.1,��
2022/08/29,03:00,0.575,0.812,0.514,0.995,0.706,0.333,0.580,0.546,�k��,4.4,��
2022/08/29,03:10,0.574,0.811,0.514,0.995,0.706,0.333,0.581,0.546,���k��,3.7,��
2022/08/29,03:20,0.573,0.811,0.515,0.996,0.704,0.333,0.581,0.547,���k��,2.0,��
2022/08/29,03:30,0.574,0.812,0.515,0.995,0.706,0.333,0.581,0.545,���k��,1.9,��
2022/08/29,03:40,0.574,0.812,0.516,0.995,0.706,0.333,0.580,0.547,���k��,2.0,��
2022/08/29,03:50,0.575,0.811,0.514,0.994,0.705,0.333,0.581,0.547,���k��,2.3,��
2022/08/29,04:00,0.574,0.812,0.514,0.995,0.706,0.334,0.580,0.545,���k��,1.7,��
2022/08/29,04:10,0.574,0.813,0.514,0.994,0.704,0.332,0.582,0.546,�k��,2.0,��
2022/08/29,04:20,0.572,0.813,0.514,0.992,0.705,0.334,0.581,0.546,�k��,2.0,��
2022/08/29,04:30,0.573,0.811,0.515,0.994,0.706,0.333,0.581,0.547,�k��,1.5,��
2022/08/29,04:40,0.575,0.813,0.513,0.995,0.705,0.334,0.581,0.546,���k��,2.3,��
2022/08/29,04:50,0.573,0.810,0.516,0.998,0.705,0.333,0.581,0.547,���k��,2.3,��
2022/08/29,05:00,0.575,0.811,0.515,0.995,0.705,0.332,0.581,0.546,���k��,2.5,��
2022/08/29,05:10,0.575,0.810,0.515,0.995,0.705,0.334,0.582,0.547,���k��,2.6,��
2022/08/29,05:20,0.574,0.811,0.514,0.997,0.705,0.333,0.581,0.546,���k��,2.2,��
2022/08/29,05:30,0.574,0.812,0.513,0.995,0.707,0.332,0.581,0.546,���k��,2.3,��
2022/08/29,05:40,0.573,0.811,0.514,0.997,0.704,0.333,0.583,0.547,���k��,2.6,��
2022/08/29,05:50,0.573,0.812,0.514,0.994,0.705,0.332,0.583,0.547,���k��,2.6,��
2022/08/29,06:00,0.574,0.812,0.515,0.995,0.705,0.333,0.583,0.545,���k��,2.6,��
2022/08/29,06:10,0.575,0.814,0.514,0.997,0.705,0.332,0.580,0.547,���k��,2.5,��
2022/08/29,06:20,0.576,0.813,0.515,0.997,0.705,0.333,0.582,0.545,���k��,1.7,��
2022/08/29,06:30,0.575,0.813,0.515,0.997,0.704,0.332,0.582,0.547,�k��,1.2,��
2022/08/29,06:40,0.576,0.813,0.514,0.998,0.705,0.335,0.582,0.545,�k��,1.4,��
2022/08/29,06:50,0.576,0.815,0.515,0.994,0.706,0.332,0.583,0.546,���k��,1.2,��
2022/08/29,07:00,0.575,0.814,0.513,0.998,0.705,0.332,0.584,0.546,���k��,0.6,��
2022/08/29,07:10,0.575,0.813,0.514,0.998,0.705,0.332,0.585,0.546,-,CALM,��
2022/08/29,07:20,0.577,0.812,0.515,0.996,0.705,0.332,0.585,0.546,�k��,0.6,��
2022/08/29,07:30,0.579,0.812,0.516,0.999,0.706,0.331,0.584,0.547,�k�k��,1.7,��
2022/08/29,07:40,0.577,0.811,0.516,1.000,0.706,0.332,0.584,0.547,�k��,1.5,��
2022/08/29,07:50,0.578,0.811,0.516,0.996,0.707,0.331,0.583,0.548,���k��,0.9,��
2022/08/29,08:00,0.578,0.812,0.516,0.997,0.708,0.332,0.585,0.546,�k,1.2,��
2022/08/29,08:10,0.578,0.813,0.517,0.997,0.706,0.333,0.585,0.548,���쓌,1.1,��
2022/08/29,08:20,0.578,0.812,0.518,0.998,0.707,0.332,0.585,0.549,���k��,1.9,��
2022/08/29,08:30,0.575,0.811,0.518,0.999,0.706,0.333,0.586,0.547,�k��,1.9,��
2022/08/29,08:40,0.576,0.814,0.518,0.998,0.705,0.332,0.583,0.546,�k�k��,2.2,��
2022/08/29,08:50,0.577,0.812,0.516,0.997,0.705,0.332,0.583,0.546,�k�k��,2.2,��
2022/08/29,09:00,0.579,0.812,0.515,0.999,0.705,0.334,0.582,0.547,�k�k��,3.1,��
2022/08/29,09:10,0.578,0.815,0.518,0.999,0.706,0.332,0.582,0.546,�k�k��,3.1,��
2022/08/29,09:20,0.581,0.813,0.517,0.999,0.707,0.333,0.584,0.546,�k,3.6,��
2022/08/29,09:30,0.579,0.813,0.518,0.999,0.709,0.333,0.584,0.547,�k�k��,3.4,��
2022/08/29,09:40,0.581,0.815,0.517,1.000,0.709,0.334,0.582,0.547,�k�k��,3.3,��
2022/08/29,09:50,0.580,0.817,0.518,0.999,0.710,0.333,0.584,0.547,�k,4.4,��
2022/08/29,10:00,0.580,0.816,0.517,1.001,0.710,0.333,0.585,0.545,�k�k��,3.8,��
2022/08/29,10:10,0.580,0.816,0.517,0.999,0.711,0.333,0.583,0.548,���k��,3.5,��
2022/08/29,10:20,0.580,0.819,0.518,0.999,0.711,0.333,0.583,0.548,�k��,2.9,��
2022/08/29,10:30,0.581,0.821,0.519,1.002,0.712,0.332,0.584,0.547,�k��,2.2,��
2022/08/29,10:40,0.581,0.820,0.520,1.001,0.707,0.334,0.584,0.549,�k��,3.0,��
2022/08/29,10:50,0.582,0.819,0.519,0.999,0.709,0.334,0.584,0.548,�k��,2.3,��
2022/08/29,11:00,0.582,0.818,0.519,1.000,0.705,0.334,0.584,0.547,���k��,2.6,��
2022/08/29,11:10,0.582,0.821,0.519,1.001,0.689,0.334,0.584,0.548,���k��,2.3,��
2022/08/29,11:20,0.582,0.821,0.522,1.001,0.694,0.334,0.583,0.547,���k��,2.9,��
2022/08/29,11:30,0.582,0.823,0.522,1.000,0.704,0.331,0.584,0.549,���k��,2.9,��
2022/08/29,11:40,0.581,0.823,0.520,1.000,0.703,0.331,0.584,0.549,�k��,2.6,��
2022/08/29,11:50,0.584,0.824,0.522,1.002,0.702,0.333,0.583,0.548,�k��,2.9,��
2022/08/29,12:00,0.583,0.826,0.522,1.001,0.710,0.335,0.583,0.549,�k��,2.3,��
2022/08/29,12:10,0.583,0.825,0.523,0.999,0.713,0.334,0.584,0.549,�k��,3.2,��
2022/08/29,12:20,0.583,0.823,0.523,1.001,0.715,0.334,0.586,0.548,�k��,2.9,��
2022/08/29,12:30,0.584,0.827,0.521,1.001,0.715,0.334,0.584,0.550,���k��,2.9,��
2022/08/29,12:40,0.583,0.826,0.524,1.001,0.715,0.334,0.584,0.549,���k��,2.5,��
2022/08/29,12:50,0.584,0.827,0.522,1.004,0.716,0.334,0.585,0.549,���k��,2.5,��
2022/08/29,13:00,0.585,0.824,0.523,1.002,0.718,0.336,0.583,0.549,���k��,3.4,��
2022/08/29,13:10,0.585,0.823,0.523,1.002,0.717,0.335,0.586,0.549,���k��,2.6,��
2022/08/29,13:20,0.586,0.824,0.523,1.003,0.716,0.334,0.585,0.551,���k��,2.9,��
2022/08/29,13:30,0.584,0.827,0.524,1.003,0.717,0.335,0.586,0.551,��,3.0,��
2022/08/29,13:40,0.583,0.824,0.523,1.002,0.718,0.334,0.585,0.549,��,2.9,��
2022/08/29,13:50,0.585,0.826,0.525,1.003,0.717,0.334,0.584,0.549,��,3.1,��
2022/08/29,14:00,0.584,0.825,0.524,1.004,0.719,0.334,0.586,0.550,��,3.1,��
2022/08/29,14:10,0.586,0.829,0.523,1.006,0.721,0.334,0.586,0.550,���k��,2.8,��
2022/08/29,14:20,0.587,0.827,0.526,1.004,0.719,0.335,0.586,0.550,���k��,3.0,��
2022/08/29,14:30,0.586,0.826,0.523,1.005,0.718,0.335,0.585,0.550,��,2.9,��
2022/08/29,14:40,0.585,0.827,0.524,1.005,0.718,0.334,0.586,0.549,��,2.9,��
2022/08/29,14:50,0.587,0.825,0.525,1.004,0.718,0.335,0.587,0.551,��,2.3,��
2022/08/29,15:00,0.584,0.828,0.524,1.003,0.718,0.335,0.587,0.549,��,2.6,��
2022/08/29,15:10,0.585,0.828,0.525,1.003,0.718,0.336,0.587,0.550,��,3.0,��
2022/08/29,15:20,0.586,0.827,0.525,1.002,0.721,0.335,0.587,0.550,���쓌,3.1,��
2022/08/29,15:30,0.585,0.829,0.526,1.003,0.718,0.334,0.585,0.548,���쓌,2.3,��
2022/08/29,15:40,0.585,0.828,0.525,1.004,0.717,0.335,0.586,0.549,���쓌,2.3,��
2022/08/29,15:50,0.582,0.828,0.525,1.003,0.720,0.335,0.585,0.550,���쓌,2.0,��
2022/08/29,16:00,0.583,0.828,0.524,1.005,0.719,0.334,0.586,0.548,�쓌,2.8,��
2022/08/29,16:10,0.582,0.830,0.526,1.004,0.720,0.334,0.586,0.550,�쓌,3.5,��
2022/08/29,16:20,0.584,0.829,0.525,1.003,0.719,0.335,0.586,0.548,���쓌,1.9,��
2022/08/29,16:30,0.581,0.830,0.526,1.003,0.721,0.333,0.586,0.550,�쓌,1.4,��
2022/08/29,16:40,0.584,0.831,0.526,1.004,0.719,0.335,0.586,0.550,���쓌,2.3,��
2022/08/29,16:50,0.586,0.832,0.524,1.002,0.720,0.337,0.587,0.550,���쓌,1.7,��
2022/08/29,17:00,0.583,0.833,0.526,1.004,0.720,0.337,0.584,0.550,���쓌,2.5,��
2022/08/29,17:10,0.582,0.830,0.525,1.004,0.720,0.337,0.585,0.548,�쓌,2.3,��
2022/08/29,17:20,0.584,0.830,0.525,1.004,0.719,0.337,0.586,0.549,���쓌,1.7,��
2022/08/29,17:30,0.587,0.832,0.525,1.003,0.718,0.336,0.584,0.549,�쓌,1.9,��
2022/08/29,17:40,0.587,0.832,0.526,1.007,0.722,0.336,0.585,0.549,��쓌,2.6,��
2022/08/29,17:50,0.587,0.833,0.527,1.007,0.721,0.337,0.586,0.551,�쓌,2.0,��
2022/08/29,18:00,0.588,0.832,0.527,1.008,0.720,0.336,0.585,0.550,��쓌,2.3,��
2022/08/29,18:10,0.590,0.832,0.527,1.006,0.718,0.337,0.586,0.551,�쓌,2.0,��
2022/08/29,18:20,0.589,0.834,0.526,1.009,0.721,0.337,0.586,0.551,��쓌,2.0,��
2022/08/29,18:30,0.589,0.835,0.527,1.010,0.721,0.337,0.586,0.551,��,2.0,��
2022/08/29,18:40,0.588,0.834,0.525,1.007,0.720,0.336,0.586,0.552,���쓌,1.4,��
2022/08/29,18:50,0.589,0.834,0.528,1.009,0.720,0.335,0.586,0.551,��쓌,1.5,��
2022/08/29,19:00,0.592,0.834,0.527,1.009,0.719,0.335,0.585,0.551,�쓌,1.4,��
2022/08/29,19:10,0.588,0.834,0.527,1.009,0.723,0.334,0.586,0.550,�쓌,1.7,��
2022/08/29,19:20,0.590,0.835,0.528,1.008,0.722,0.335,0.585,0.552,��쓌,1.2,��
2022/08/29,19:30,0.590,0.834,0.527,1.009,0.722,0.335,0.586,0.551,�쓌,1.1,��
2022/08/29,19:40,0.590,0.835,0.526,1.008,0.721,0.336,0.586,0.552,��,0.8,��
2022/08/29,19:50,0.588,0.834,0.528,1.010,0.722,0.335,0.586,0.551,�k��,0.6,��
2022/08/29,20:00,0.589,0.836,0.526,1.009,0.723,0.336,0.587,0.552,���k��,0.9,�L
2022/08/29,20:10,0.590,0.834,0.528,1.009,0.724,0.336,0.585,0.551,���쐼,0.9,�L
2022/08/29,20:20,0.588,0.833,0.528,1.008,0.724,0.336,0.586,0.550,��,0.9,��
2022/08/29,20:30,0.588,0.838,0.527,1.010,0.723,0.336,0.587,0.551,��쐼,0.6,��
2022/08/29,20:40,0.590,0.834,0.527,1.008,0.724,0.335,0.585,0.552,���쐼,0.6,��
2022/08/29,20:50,0.594,0.835,0.528,1.007,0.724,0.335,0.585,0.552,�쐼,0.6,��
2022/08/29,21:00,0.591,0.833,0.528,1.008,0.724,0.335,0.586,0.551,��쐼,0.9,��
2022/08/29,21:10,0.589,0.835,0.528,1.008,0.724,0.335,0.586,0.552,�쐼,1.1,��
2022/08/29,21:20,0.590,0.836,0.527,1.011,0.723,0.336,0.587,0.551,��쐼,1.1,��
2022/08/29,21:30,0.589,0.836,0.527,1.009,0.724,0.337,0.586,0.551,�쐼,1.1,��
2022/08/29,21:40,0.588,0.836,0.527,1.009,0.724,0.335,0.586,0.553,�쐼,1.1,�L
2022/08/29,21:50,0.590,0.836,0.527,1.012,0.722,0.336,0.588,0.552,���쐼,0.8,��
2022/08/29,22:00,0.589,0.836,0.527,1.010,0.724,0.336,0.586,0.552,��,0.8,��
2022/08/29,22:10,0.590,0.836,0.528,1.008,0.723,0.336,0.589,0.551,���쐼,1.2,��
2022/08/29,22:20,0.589,0.837,0.528,1.007,0.723,0.336,0.586,0.551,-,CALM,��
2022/08/29,22:30,0.588,0.836,0.528,1.010,0.724,0.337,0.585,0.553,���k��,0.6,��
2022/08/29,22:40,0.590,0.835,0.529,1.010,0.724,0.337,0.586,0.552,-,CALM,��
2022/08/29,22:50,0.589,0.836,0.527,1.008,0.724,0.337,0.586,0.551,���k��,2.0,��
2022/08/29,23:00,0.589,0.837,0.530,1.007,0.724,0.336,0.584,0.552,�k��,2.2,��
2022/08/29,23:10,0.588,0.835,0.528,1.010,0.724,0.336,0.586,0.552,���k��,2.0,��
2022/08/29,23:20,0.589,0.836,0.527,1.010,0.723,0.336,0.587,0.552,-,CALM,�L
2022/08/29,23:30,0.589,0.835,0.528,1.011,0.722,0.336,0.587,0.552,���쐼,0.6,�L
2022/08/29,23:40,0.588,0.834,0.528,1.009,0.724,0.336,0.587,0.552,���쐼,1.1,�L
2022/08/29,23:50,0.589,0.833,0.529,1.008,0.722,0.336,0.586,0.553,��,0.8,�L
